Temperature
17 17 17 17 17 17 17 16 16 16 16 16 16 16 16 16 17 17 17 17 17 17 17 17 17 17 17 17 17 17 17 17 17 16 16 16 16 16 16 16 16 16 16
17 17 17 17 16 16 16 16 16 16 16 16 16 16 16 16 16 16 16 17 17 17 17 17 17 17 17 17 17 17 17 17 17 17 16 16 16 16 16 16 16 16 16
17 17 16 16 16 16 16 16 16 16 16 16 16 16 16 16 16 16 16 16 16 17 17 17 17 17 17 16 17 17 16 16 16 16 16 16 16 16 16 16 16 16 16
17 16 16 16 16 16 16 16 16 16 16 16 16 16 16 16 16 16 16 16 16 16 16 16 17 17 17 16 16 16 16 16 16 16 16 16 16 16 16 16 16 16 16
16 16 16 16 16 16 15 15 15 15 15 15 16 16 16 16 15 16 16 16 16 16 16 16 16 17 16 16 16 16 16 16 16 16 16 16 16 16 16 16 16 16 16
16 16 16 16 15 15 15 15 15 15 15 15 16 16 15 15 15 15 15 16 15 16 16 16 16 16 16 16 16 16 16 16 16 16 16 16 16 16 16 16 16 16 16
16 16 15 15 15 15 15 15 15 15 15 15 15 16 16 16 15 15 15 15 15 15 15 15 16 16 16 16 16 16 16 16 16 16 16 16 16 16 16 16 16 16 16
16 15 15 15 15 15 14 14 14 14 15 14 15 16 17 17 15 15 15 15 15 15 15 15 15 15 15 15 15 16 16 16 16 16 16 16 16 16 16 16 16 16 16
15 15 15 15 15 14 14 14 14 14 14 14 14 15 16 17 16 16 15 14 14 14 15 15 15 15 15 15 15 15 15 16 16 16 16 16 16 16 16 16 16 16 16
15 15 15 14 14 14 14 14 13 13 13 14 14 13 14 14 15 16 15 15 14 14 14 14 14 14 14 14 14 15 15 15 15 16 16 16 16 16 16 16 16 16 16
15 15 14 14 14 14 13 13 13 13 13 13 14 14 14 13 14 14 15 15 15 14 14 14 14 14 14 14 14 14 15 15 15 15 15 15 15 16 16 16 16 16 16
14 14 14 14 13 13 13 13 13 13 12 12 13 13 13 14 14 14 15 14 15 14 14 13 13 14 14 13 14 14 14 14 15 15 15 15 15 15 15 15 16 16 16
14 14 14 13 13 13 13 13 12 12 12 12 12 12 12 13 13 13 13 14 14 14 14 13 13 13 13 13 13 13 14 14 14 14 15 15 15 15 15 15 15 15 15
14 14 13 13 13 13 13 12 12 12 12 11 12 12 12 12 12 12 13 13 14 14 14 14 13 13 13 12 12 13 13 13 14 14 14 14 14 15 15 15 15 15 15
14 14 13 13 13 13 12 12 12 12 11 11 12 11 11 12 12 12 12 12 13 13 14 14 13 13 12 12 12 12 12 12 13 13 14 14 14 14 14 14 15 15 15
14 13 13 13 13 12 12 12 12 12 11 11 11 11 11 11 11 11 11 12 12 12 13 13 12 12 12 11 12 11 12 12 13 13 13 13 13 14 14 14 14 14 14
14 13 13 13 13 12 12 12 12 12 11 11 11 11 11 11 11 11 11 11 11 11 12 12 12 12 11 11 11 11 11 11 12 12 12 13 13 13 13 14 14 14 14
14 13 13 13 13 12 12 12 12 12 12 11 11 11 11 11 11 11 11 11 11 11 11 11 11 11 11 11 11 11 11 11 11 12 12 12 13 13 13 13 13 14 14
14 13 13 13 13 13 12 12 12 12 12 11 11 11 11 11 11 11 10 11 11 11 11 11 11 11 11 11 11 11 11 11 11 11 11 12 12 12 13 13 13 13 14
14 14 13 13 13 13 12 12 12 12 12 11 11 11 11 11 11 10 10 10 10 10 10 10 11 11 11 11 11 11 11 11 11 11 11 11 11 12 12 12 13 13 13
14 14 14 13 13 13 13 13 12 12 12 12 11 11 11 11 11 11 11 10 10 10 10 11 11 11 11 11 11 11 11 11 11 11 11 11 11 11 12 12 12 12 13
14 14 14 14 13 13 13 13 13 12 12 12 12 11 11 11 11 11 11 11 10 10 10 10 10 11 10 10 10 10 10 11 11 11 11 11 11 11 11 11 12 12 12
15 14 14 14 14 14 14 14 13 13 12 12 12 11 11 12 11 10 10 10 10 10 10 10 10 10 10 10 10 10 10 10 10 10 10 10 11 11 11 11 11 11 12
15 15 14 14 14 14 14 14 13 13 12 12 12 12 11 11 11 11 10 10 10 10 10 9 9 9 9 9 9 9 9 9 9 9 9 10 10 11 11 11 11 11 11
15 15 15 14 14 14 14 14 13 13 12 12 12 12 12 11 11 11 11 10 10 10 10 10 10 10 10 10 9 9 9 9 10 10 10 10 10 11 11 11 11 11 11
15 14 14 14 14 14 14 14 13 13 12 12 12 12 12 12 12 11 11 10 10 10 10 10 10 9 9 9 9 9 9 9 10 10 11 10 10 10 11 11 11 11 11
Wind_Speed
3 3 2 2 1 2 2 1 1 1 1 2 3 3 4 4 5 5 3 6 6 7 9 11 13 14 15 15 15 15 14 14 14 13 13 12 12 12 12 11 11 11 11
3 2 2 2 1 1 1 0 1 1 2 2 3 3 5 5 4 5 6 5 8 8 9 10 12 14 14 16 16 16 16 16 16 15 15 14 14 13 13 13 12 12 12
4 2 2 2 2 2 2 1 1 1 2 2 2 3 4 4 4 5 6 6 6 9 10 10 11 13 14 15 16 17 18 18 17 17 17 16 16 15 15 14 14 14 13
4 3 2 3 2 2 2 2 0 1 1 2 2 3 3 3 4 5 6 5 5 6 8 9 9 11 13 14 16 17 18 19 19 19 19 19 18 18 17 17 16 16 15
5 4 3 4 3 2 1 0 2 2 2 3 3 3 3 3 3 4 4 5 5 6 7 7 9 10 12 14 15 16 17 18 19 20 20 20 20 20 19 19 18 18 17
6 4 4 4 2 2 1 1 1 1 2 3 4 3 3 3 3 2 4 4 4 5 6 5 6 9 11 13 14 15 17 18 19 20 20 21 22 22 21 21 21 20 19
6 3 3 4 2 2 1 0 1 1 2 3 4 4 3 3 1 1 2 2 2 2 3 3 4 4 6 11 13 14 17 18 19 20 20 21 22 23 24 23 23 22 22
5 5 3 3 2 2 1 0 1 3 2 2 4 5 3 3 3 1 1 0 1 1 2 2 2 3 5 5 6 10 13 16 18 20 21 21 22 24 25 26 25 25 24
4 3 3 2 2 2 1 0 1 2 3 2 3 4 4 3 2 2 1 1 1 2 2 2 3 2 4 5 5 6 7 11 14 17 19 20 21 24 26 27 27 27 26
4 4 4 3 2 1 1 2 1 2 3 3 1 1 3 5 5 3 3 2 1 3 3 4 4 3 3 4 3 2 3 5 9 12 15 17 19 22 24 25 26 27 27
4 4 4 3 2 1 1 1 0 3 3 3 3 3 3 3 5 6 6 4 4 4 3 4 4 4 3 4 4 2 3 4 6 8 11 14 16 19 22 24 25 25 27
4 4 4 3 2 1 1 1 1 1 2 2 4 4 4 4 4 5 6 6 6 4 4 5 5 4 4 5 3 6 6 6 6 7 8 10 12 15 18 21 24 25 26
5 5 4 3 2 2 2 1 2 1 2 2 3 3 4 4 4 5 6 7 7 6 4 5 4 4 5 5 3 5 5 5 7 8 9 9 11 13 15 18 21 23 24
4 5 5 4 3 3 3 2 3 2 2 3 3 3 4 4 4 5 6 7 8 7 5 4 4 5 5 7 4 8 9 4 6 8 10 10 11 11 13 15 18 21 23
5 6 5 5 4 4 3 3 2 2 3 4 4 4 5 4 5 5 5 6 7 9 8 5 4 4 5 8 7 10 11 6 8 10 10 10 11 12 12 13 16 18 20
5 6 5 5 4 4 4 4 4 3 4 4 4 4 5 5 4 5 6 6 7 8 9 7 6 7 7 10 8 10 11 10 13 13 12 11 12 13 13 14 15 17 18
7 7 6 6 6 5 5 5 5 4 5 5 5 5 6 6 6 6 6 6 7 8 10 10 8 8 8 10 10 11 12 12 12 11 10 11 13 13 14 15 16 17 18
8 7 7 7 7 6 6 6 6 6 6 6 6 6 7 6 6 7 7 7 7 8 10 12 11 10 10 9 10 10 12 12 12 8 9 11 13 14 14 15 16 17 18
8 8 8 8 7 7 7 7 7 6 7 7 7 7 7 7 8 7 7 8 8 8 9 11 11 9 10 9 10 11 12 10 13 12 11 15 16 15 15 16 17 17 18
9 9 9 8 8 8 8 7 7 7 7 8 8 8 8 8 9 8 8 9 9 9 10 10 11 10 9 9 9 10 10 8 9 11 11 11 13 16 18 19 19 19 19
10 9 9 9 9 8 8 8 7 8 8 8 8 9 9 8 7 8 9 9 9 9 10 10 10 10 9 8 9 9 10 10 10 10 10 10 10 11 13 18 21 21 20
10 10 10 10 10 8 5 4 8 9 9 9 9 9 9 10 11 14 14 13 12 12 12 11 11 11 11 11 10 10 11 11 11 8 9 10 10 11 11 14 12 14 17
11 11 11 11 10 8 9 10 10 10 11 10 10 10 10 9 8 11 13 16 16 18 17 14 14 14 14 12 12 13 12 13 13 11 11 13 12 12 12 14 11 13 15
11 11 11 11 10 10 12 12 11 12 12 12 12 12 12 12 11 10 12 12 13 13 14 15 14 15 15 13 12 13 14 14 15 13 13 14 13 12 12 12 13 16 17
11 11 11 11 11 10 12 13 12 10 11 13 13 13 13 13 10 9 12 14 14 14 14 18 18 17 17 16 14 12 14 13 14 13 10 12 13 13 12 12 13 17 19
11 11 11 11 11 11 11 14 13 10 11 11 12 13 14 16 12 11 13 14 15 14 13 12 13 16 18 18 19 16 15 14 14 14 11 10 12 11 12 11 10 10 13
Wind_Direction
164 144 123 108 126 130 155 200 240 243 264 272 284 285 285 277 280 280 239 174 207 225 226 224 218 214 214 212 208 207 205 202 199 197 197 195 191 188 187 185 182 179 177
143 140 145 135 134 136 105 158 233 233 260 275 276 281 282 287 275 278 276 217 201 214 225 228 226 221 220 218 216 213 211 210 206 203 203 203 200 197 195 195 192 189 188
138 147 137 146 114 121 130 131 139 232 249 259 273 275 272 280 282 270 269 268 235 208 212 223 228 223 222 224 223 221 217 214 213 209 209 208 207 204 202 201 200 198 197
141 158 145 118 113 130 131 131 129 306 314 293 287 288 280 265 267 266 262 257 264 254 212 203 223 226 223 225 225 224 223 220 217 215 214 213 211 210 209 208 207 205 203
148 157 130 112 138 131 122 40 61 327 329 319 291 269 286 281 272 268 278 269 257 257 258 202 210 223 227 229 229 226 225 224 223 221 220 218 216 214 213 213 212 210 209
148 148 139 133 153 132 102 64 40 346 317 312 304 306 284 287 278 278 275 266 258 255 257 262 235 220 218 226 231 232 232 230 228 227 226 224 222 218 217 217 215 214 213
148 159 143 139 167 111 85 359 312 283 304 326 298 286 247 227 246 250 283 293 268 265 265 258 257 258 227 214 225 233 235 235 232 230 229 227 228 224 220 219 219 218 217
160 166 151 169 147 141 143 101 332 315 328 337 317 305 281 213 189 184 243 262 326 292 270 261 258 253 265 249 216 225 235 237 234 230 230 229 229 228 225 222 220 219 219
160 151 167 184 183 231 161 197 287 313 320 318 337 318 308 319 317 187 175 251 323 321 305 310 282 278 264 257 249 223 238 245 241 236 232 230 231 231 229 225 222 221 220
157 160 175 181 199 217 165 236 83 302 296 304 304 304 317 332 304 292 231 211 264 287 307 306 305 287 274 268 247 288 289 269 253 246 239 236 235 233 231 229 227 225 222
161 165 167 170 182 202 143 347 317 298 296 305 313 308 298 270 267 286 292 298 284 282 298 293 293 287 288 283 276 7 348 311 284 265 252 246 241 235 232 232 233 231 228
166 162 163 164 183 166 157 212 266 246 316 332 312 304 298 297 297 294 290 287 293 296 302 300 283 278 276 276 296 21 343 321 307 292 272 257 249 242 237 234 234 234 233
173 164 169 173 174 164 186 216 232 287 271 281 283 294 301 298 302 297 295 298 298 292 278 266 270 288 284 285 292 355 302 304 303 297 286 274 264 253 246 240 238 236 235
173 160 175 179 183 191 201 205 238 224 236 260 275 294 288 284 292 290 294 301 298 295 280 278 295 282 305 299 335 321 286 279 297 296 289 281 274 267 256 250 244 240 237
172 173 182 186 190 196 207 223 240 239 239 255 259 244 264 280 274 283 285 287 294 298 299 299 286 298 296 297 310 297 295 296 295 289 284 281 277 272 264 257 251 245 241
178 183 192 196 199 204 210 230 236 218 242 249 262 281 277 278 281 276 277 278 280 286 291 298 298 296 311 304 293 292 287 283 269 264 267 272 274 273 269 263 257 252 247
188 195 200 205 209 215 219 227 247 234 242 249 250 250 256 276 280 283 275 275 276 279 284 290 292 293 289 287 295 293 286 281 273 241 249 266 270 270 269 266 262 258 252
199 203 207 212 218 221 224 231 240 240 244 249 252 257 260 258 258 270 278 277 278 280 279 287 292 290 285 284 282 283 284 280 281 259 244 257 263 265 265 265 264 259 255
205 208 212 219 224 226 228 232 239 245 248 252 255 257 259 261 262 268 272 276 279 277 277 282 285 288 284 281 286 280 278 276 277 267 243 241 246 252 258 261 261 258 255
207 211 215 222 228 231 231 233 236 242 249 252 254 256 258 259 259 265 265 265 271 279 276 274 280 284 281 279 277 280 281 274 276 282 279 270 252 244 248 252 252 252 251
212 213 218 223 228 231 233 234 240 243 247 253 254 252 253 254 273 266 273 280 279 275 279 279 281 284 285 291 287 289 288 289 280 275 275 273 266 261 252 240 239 242 244
215 216 221 226 229 234 162 190 248 257 253 254 257 258 257 237 233 228 242 255 266 269 275 282 283 285 288 288 288 287 287 286 286 283 281 279 278 274 269 263 248 232 238
214 219 225 229 234 226 179 200 222 252 258 258 259 260 264 264 243 253 235 226 239 241 246 262 274 279 285 286 290 286 282 285 287 291 288 281 277 273 270 266 242 235 244
217 221 227 231 235 227 190 205 214 238 253 256 255 256 259 266 262 259 266 263 261 253 240 240 255 265 272 280 281 279 281 278 273 266 262 270 274 273 273 270 246 228 236
222 225 228 232 236 233 199 203 214 245 248 252 255 255 256 260 249 227 254 264 267 267 254 236 242 255 267 271 269 272 272 272 274 274 262 263 272 275 274 270 257 227 228
228 233 234 235 238 242 209 200 209 245 254 258 256 253 243 240 248 216 246 259 265 269 275 270 246 246 253 252 239 242 257 265 272 276 272 264 270 276 279 271 263 251 237
Height
1576 1577 1578 1579 1580 1581 1581 1582 1582 1582 1582 1583 1584 1584 1584 1585 1586 1587 1587 1586 1586 1587 1588 1589 1590 1591 1592 1593 1594 1595 1597 1598 1599 1600 1602 1603 1604 1605 1606 1607 1608 1609 1611
1576 1577 1577 1578 1579 1580 1580 1581 1581 1581 1581 1582 1582 1582 1582 1583 1583 1584 1585 1585 1584 1585 1586 1587 1588 1589 1590 1591 1593 1594 1595 1596 1598 1599 1600 1602 1603 1604 1605 1607 1608 1609 1610
1575 1576 1577 1578 1578 1579 1579 1580 1580 1580 1580 1581 1580 1581 1581 1580 1581 1581 1582 1582 1583 1583 1584 1584 1585 1587 1588 1589 1590 1591 1593 1594 1595 1597 1599 1600 1602 1603 1604 1605 1607 1608 1609
1574 1576 1577 1577 1577 1578 1579 1579 1579 1580 1579 1579 1579 1579 1579 1578 1578 1579 1580 1580 1580 1581 1582 1581 1582 1584 1585 1586 1587 1588 1589 1591 1593 1594 1596 1598 1599 1601 1602 1604 1605 1606 1608
1573 1575 1576 1576 1577 1578 1578 1579 1579 1579 1579 1578 1578 1577 1578 1577 1577 1577 1577 1577 1577 1578 1579 1579 1579 1580 1581 1582 1584 1585 1586 1588 1589 1591 1593 1595 1597 1598 1600 1601 1603 1604 1606
1573 1574 1575 1575 1577 1577 1577 1577 1577 1577 1577 1577 1577 1576 1576 1575 1575 1575 1575 1576 1575 1575 1576 1576 1576 1577 1578 1579 1580 1581 1582 1584 1586 1587 1589 1591 1593 1595 1597 1598 1600 1602 1603
1572 1573 1574 1574 1575 1576 1576 1577 1577 1577 1577 1576 1576 1576 1575 1574 1574 1573 1574 1574 1574 1573 1573 1573 1574 1574 1575 1575 1576 1577 1579 1580 1581 1583 1585 1587 1589 1591 1593 1595 1597 1598 1600
1571 1572 1572 1574 1574 1574 1574 1575 1575 1576 1576 1575 1575 1574 1574 1574 1572 1573 1572 1572 1572 1572 1572 1571 1571 1571 1571 1572 1573 1573 1575 1576 1577 1578 1580 1582 1584 1586 1588 1590 1592 1594 1596
1570 1570 1571 1572 1573 1574 1574 1573 1573 1574 1575 1574 1573 1574 1573 1571 1572 1572 1571 1571 1570 1570 1570 1569 1569 1568 1568 1569 1569 1569 1570 1571 1573 1574 1575 1577 1579 1580 1583 1585 1587 1589 1591
1568 1569 1570 1570 1571 1572 1572 1572 1572 1572 1572 1573 1573 1572 1572 1572 1572 1570 1570 1570 1569 1568 1568 1568 1567 1567 1566 1567 1566 1566 1566 1567 1568 1569 1570 1572 1573 1574 1576 1579 1581 1584 1586
1567 1568 1568 1568 1569 1570 1570 1570 1570 1570 1571 1571 1572 1571 1571 1571 1570 1570 1569 1569 1568 1567 1566 1566 1565 1565 1564 1564 1564 1563 1563 1564 1564 1565 1565 1566 1567 1568 1570 1573 1575 1577 1580
1566 1566 1567 1567 1568 1568 1568 1568 1568 1568 1568 1568 1569 1570 1570 1570 1569 1568 1567 1566 1566 1565 1564 1563 1563 1562 1562 1562 1561 1559 1559 1560 1560 1560 1561 1561 1562 1563 1565 1567 1569 1571 1573
1565 1564 1566 1565 1566 1566 1566 1566 1566 1567 1567 1566 1566 1567 1568 1568 1567 1567 1566 1565 1564 1563 1561 1561 1560 1560 1559 1559 1557 1555 1555 1555 1555 1556 1556 1556 1557 1558 1559 1560 1562 1564 1566
1564 1563 1563 1564 1564 1565 1565 1565 1566 1565 1565 1565 1565 1565 1565 1565 1565 1565 1564 1563 1562 1560 1559 1559 1558 1557 1556 1556 1554 1552 1552 1551 1551 1551 1551 1551 1552 1552 1553 1554 1555 1557 1559
1561 1561 1562 1562 1563 1563 1563 1563 1564 1563 1563 1563 1564 1563 1563 1563 1563 1562 1562 1561 1561 1559 1557 1556 1555 1555 1553 1552 1550 1548 1548 1546 1546 1546 1546 1546 1546 1547 1547 1548 1549 1551 1552
1558 1559 1560 1560 1561 1561 1561 1561 1562 1561 1561 1561 1561 1560 1560 1561 1560 1560 1559 1559 1558 1557 1555 1554 1553 1552 1549 1548 1546 1544 1543 1541 1541 1540 1540 1541 1541 1541 1542 1542 1543 1545 1546
1556 1557 1558 1558 1559 1559 1559 1559 1560 1559 1559 1559 1559 1559 1558 1557 1558 1558 1557 1556 1555 1554 1552 1550 1549 1548 1545 1543 1542 1540 1539 1538 1537 1536 1535 1535 1535 1535 1536 1536 1537 1538 1539
1554 1555 1555 1556 1557 1557 1557 1557 1557 1557 1557 1557 1557 1556 1555 1555 1554 1554 1553 1553 1552 1550 1549 1547 1545 1544 1542 1539 1537 1535 1535 1534 1533 1531 1529 1529 1529 1529 1529 1530 1530 1531 1532
1551 1552 1553 1554 1554 1554 1554 1554 1554 1554 1554 1554 1553 1553 1552 1552 1551 1551 1549 1549 1548 1547 1545 1543 1541 1539 1537 1536 1533 1532 1530 1528 1527 1527 1525 1523 1523 1522 1522 1522 1523 1524 1525
1548 1549 1550 1551 1551 1551 1551 1551 1551 1551 1551 1550 1550 1549 1548 1548 1547 1546 1545 1544 1543 1542 1541 1539 1537 1535 1534 1532 1530 1528 1526 1525 1523 1522 1521 1519 1517 1516 1515 1515 1516 1516 1517
1545 1546 1547 1547 1548 1548 1548 1549 1548 1548 1547 1547 1546 1545 1545 1543 1542 1542 1541 1541 1539 1538 1537 1535 1533 1531 1530 1528 1527 1524 1523 1520 1519 1517 1515 1514 1513 1511 1510 1509 1509 1509 1510
1541 1542 1543 1544 1544 1545 1544 1544 1544 1544 1544 1543 1542 1541 1540 1538 1537 1536 1535 1535 1534 1533 1532 1530 1529 1527 1525 1524 1522 1520 1518 1516 1514 1513 1511 1509 1508 1506 1505 1504 1503 1502 1502
1537 1538 1539 1539 1540 1540 1540 1540 1539 1539 1539 1538 1538 1537 1536 1536 1533 1532 1530 1528 1527 1526 1525 1524 1523 1521 1520 1519 1517 1515 1513 1511 1508 1507 1506 1503 1502 1500 1498 1497 1496 1495 1495
1533 1533 1534 1535 1535 1535 1535 1535 1534 1534 1533 1533 1532 1531 1530 1529 1529 1527 1526 1525 1523 1521 1520 1517 1516 1514 1514 1512 1510 1509 1507 1504 1502 1500 1499 1497 1495 1494 1492 1491 1489 1487 1487
1528 1529 1529 1529 1529 1530 1530 1530 1529 1528 1528 1528 1527 1526 1524 1523 1522 1521 1520 1518 1516 1515 1514 1512 1510 1508 1506 1505 1504 1502 1501 1499 1496 1495 1494 1492 1489 1488 1486 1484 1483 1480 1479
1523 1524 1524 1524 1524 1524 1524 1524 1524 1523 1523 1523 1521 1520 1518 1517 1516 1515 1513 1512 1510 1509 1508 1506 1503 1500 1498 1497 1495 1494 1493 1493 1490 1488 1487 1486 1484 1482 1480 1478 1477 1475 1474